Location: Fort Worth, Tx
(32.7431°N, 97.3695°W)
Time: 05:29:51
(UTC-04:00)

ISS - Visible Passes

Search period start: 21 September 2018 00:00
Search period end: 01 October 2018 00:00
Orbit: 403 x 408 km, 51.6° (Epoch: 21 September)

Date Brightness Start Highest point End Pass type
(mag) Time Alt. Az. Time Alt. Az. Time Alt. Az.
21 Sep -3.9 21:22:55 10° SW 21:26:11 78° SE 21:28:48 15° NE visible
22 Sep -1.3 22:08:31 10° W 22:10:59 19° NW 22:12:27 15° N visible
23 Sep -2.2 21:15:56 10° WSW 21:18:59 34° NW 21:22:03 10° NNE visible
25 Sep -1.0 21:09:50 10° WNW 21:11:55 16° NNW 21:14:01 10° N visible
